Location: Central Falls
(41.8900°N, 71.3929°W)
Time: 15:42:35
(UTC+00:00)

Vanguard 1 - Pass Details

Date: 05 December 2023
Orbit: 653 x 3826 km, 34.3° (Epoch: 24 February)

Event Time Altitude Azimuth Distance (km) Brightness Sun altitude
Rises 03:55:32 0° 281° (W) 7,432 14.7 -68.7°
Reaches altitude 10° 04:00:26 10° 277° (W) 6,649 14.3 -69.1°
Enters shadow 04:08:12 27° 266° (W) 5,527 13.7 -69.6°
Maximum altitude 04:21:52 50° 211° (SSW) 4,376 - -70.2°
Drops below altitude 10° 04:40:23 10° 143° (SE) 5,800 - -70.4°
Sets 04:44:21 0° 138° (SE) 6,465 - -70.4°
